[Iaude] MPEC K226: 2020 KV6 [a=1.08,e=0.06,i=22.6,H=25.8]

mpec at marsden.cfa.harvard.edu mpec at marsden.cfa.harvard.edu
Sat May 30 11:42:27 EDT 2020


M.P.E.C. 2020-K226                                 Issued 2020 May 30, 15:41 UT

     The Minor Planet Electronic Circulars contain information on unusual
         minor planets and routine data on comets.  They are published
    on behalf of Division F of the International Astronomical Union by the
          Minor Planet Center, Smithsonian Astrophysical Observatory,
                          Cambridge, MA 02138, U.S.A.

             Prepared using the Tamkin Foundation Computer Network

                              MPC at CFA.HARVARD.EDU
            URL https://www.minorplanetcenter.net/    ISSN 1523-6714

                                    2020 KV6                                    


Observations:
     K20K06V* C2020 05 29.35447 16 51 25.75 +48 08 46.4          19.3 GVEK226G96
     K20K06V  C2020 05 29.35910 16 51 24.93 +48 11 17.1          19.3 GVEK226G96
     K20K06V  C2020 05 29.36373 16 51 24.18 +48 13 47.2          19.4 GVEK226G96
     K20K06V  C2020 05 29.42011 16 51 15.87 +48 43 14.2          19.0 GVEK226I52
     K20K06V  C2020 05 29.42101 16 51 15.73 +48 43 41.8          19.1 GVEK226I52
     K20K06V  C2020 05 29.42190 16 51 15.63 +48 44 08.7          19.3 GVEK226I52
     K20K06V  C2020 05 29.42280 16 51 15.52 +48 44 36.1          18.9 GVEK226I52
     K20K06V  C2020 05 29.81023 16 52 03.31 +51 43 22.8          19.7 GVEK226N88
     K20K06V  C2020 05 29.81119 16 52 03.17 +51 43 45.0          19.5 GVEK226N88
     K20K06V  C2020 05 29.81369 16 52 02.85 +51 44 45.0          20.1 GVEK226N88
     K20K06V  C2020 05 29.81459 16 52 02.72 +51 45 05.7          20.0 GVEK226N88
     K20K06V  C2020 05 29.81553 16 52 02.60 +51 45 29.1          21.2 GVEK226N88
     K20K06V KC2020 05 29.87742 16 52 35.46 +52 08 42.6          19.5 GVEK226A17
     K20K06V KC2020 05 29.88781 16 52 34.71 +52 12 55.0          19.6 GVEK226A17
     K20K06V KC2020 05 29.89868 16 52 33.78 +52 17 16.3          19.4 GVEK226A17
     K20K06V KC2020 05 29.93455516 52 36.00 +52 31 41.6          19.7 GUEK226I93
     K20K06V KC2020 05 29.94321616 52 35.10 +52 35 03.4          20.0 GUEK226I93
     K20K06V KC2020 05 29.95217316 52 34.07 +52 38 30.6          19.5 GUEK226I93
     K20K06V KC2020 05 29.96193316 52 26.93 +52 42 29.0                VEK226104
     K20K06V KC2020 05 29.96590216 52 26.48 +52 43 58.9          19.3 GVEK226104
     K20K06V KC2020 05 29.96987016 52 25.98 +52 45 27.9          19.8 GVEK226104
     K20K06V KC2020 05 29.97378116 52 30.98 +52 45 54.9          19.6 GVEK226J95
     K20K06V KC2020 05 29.97553016 52 30.83 +52 46 34.4          19.6 GVEK226J95
     K20K06V KC2020 05 29.97690016 52 29.73 +52 46 51.3          19.8 GVEK226Z99
     K20K06V KC2020 05 29.97726416 52 30.67 +52 47 13.3          19.6 GVEK226J95
     K20K06V KC2020 05 29.97895816 52 30.46 +52 47 51.4          20.1 GVEK226J95
     K20K06V KC2020 05 29.97973816 52 29.42 +52 47 55.8          20.1 GVEK226Z99
     K20K06V KC2020 05 29.98257916 52 29.20 +52 48 59.3          20.1 GVEK226Z99
     K20K06V KC2020 05 30.04881816 52 14.91 +53 13 32.8          20.1 GVEK226L01
     K20K06V KC2020 05 30.05040616 52 14.69 +53 14 05.7          20.1 GVEK226L01
     K20K06V KC2020 05 30.05199416 52 14.50 +53 14 38.2          19.8 GVEK226L01
     K20K06V KC2020 05 30.05332716 52 14.40 +53 15 05.4          20.1 GVEK226L01
     K20K06V KC2020 05 30.05530216 52 14.24 +53 15 45.5          20.1 GVEK226L01
     K20K06V KC2020 05 30.05674016 52 14.06 +53 16 15.2          20.0 GVEK226L01
     K20K06V KC2020 05 30.05804616 52 13.91 +53 16 41.8          19.7 GVEK226L01
     K20K06V KC2020 05 30.21233516 52 49.57 +54 09 36.0          20.1 VuEK226H21
     K20K06V KC2020 05 30.21524316 52 49.16 +54 10 33.4          20.2 VuEK226H21
     K20K06V KC2020 05 30.21873316 52 48.71 +54 11 42.2          20.2 VuEK226H21
     K20K06V KC2020 05 30.27763 16 52 44.99 +54 30 30.2          19.9 GVEK226734
     K20K06V KC2020 05 30.28281 16 52 44.31 +54 32 06.7          20.4 GVEK226734
     K20K06V KC2020 05 30.28798 16 52 43.55 +54 33 42.1          20.2 GVEK226734
     K20K06V KC2020 05 30.29315 16 52 42.76 +54 35 17.1          20.5 GVEK226734
     K20K06V  C2020 05 30.29526 16 52 51.56 +54 36 32.6          19.9 GVEK226I52
     K20K06V  C2020 05 30.29638 16 52 51.38 +54 36 52.8          19.6 GVEK226I52
     K20K06V  C2020 05 30.29750 16 52 51.20 +54 37 14.1          20.0 GVEK226I52
     K20K06V  C2020 05 30.29863 16 52 51.03 +54 37 35.3          20.2 GVEK226I52

Observer details:
104 San Marcello Pistoiese.  Observers P. Bacci, M. Maestripieri.  Measurers
    P. Bacci, L. Tesi, G. Fagioli.  0.60-m reflector + CCD.
734 Farpoint Observatory, Eskridge.  Observers G. Hug, D. Cromer, D. Goodin.
    Measurer D. Cromer.  0.7-m reflector + CCD.
A17 Guidestar Observatory, Weinheim.  Observers M. Emmerich, S. Melchert.
    0.36-m f/6 Schmidt-Cassegrain + CCD.
G96 Mt. Lemmon Survey.  Observer K. W. Wierzchos.  Measurers E. J.
    Christensen, G. A. Farneth, D. C. Fuls, A. R. Gibbs, A. D. Grauer, H.
    Groeller, R. A. Kowalski, S. M. Larson, G. J. Leonard, T. A. Pruyne, D.
    Rankin, R. L. Seaman, F. C. Shelly, K. W. Wierzchos.  1.5-m reflector +
    10K CCD.
H21 Astronomical Research Observatory, Westfield.  Observer R. Holmes.
    Measurers S. Foglia, L. Buzzi, T. Linder, R. Holmes.  0.76-m f/3.0
    astrograph + CCD.
I52 Steward Observatory, Mt. Lemmon Station.  Observer R. A. Kowalski.
    Measurers E. J. Christensen, G. A. Farneth, D. C. Fuls, A. R. Gibbs, A. D.
    Grauer, H. Groeller, R. A. Kowalski, S. M. Larson, G. J. Leonard, T. A.
    Pruyne, D. Rankin, R. L. Seaman, F. C. Shelly, K. W. Wierzchos.  1.0-m
    reflector + CCD.
I93 St Pardon de Conques.  Observer F. Losse.  0.40-m f/3.7 reflector + CCD.
J95 Great Shefford.  Observer P. Birtwhistle.  0.41-m f/6.3 Schmidt-Cassegrain
    + CCD.
L01 Visnjan Observatory, Tican.  Observer K. Korlevic.  1.0-m f/2.9 reflector
    + CCD.
N88 Xingming Observatory #3, Nanshan.  Observer X. Gao.  Measurer Q.-Z. Ye.
    0.6-m f/8 Ritchey-Chretien + CCD.
Z99 Clixby Observatory, Cleethorpes.  Observer A. Mickleburgh.  0.36-m f/8
    Schmidt-Cassegrain + CCD.

Orbital elements:
2020 KV6                                                 Earth MOID = 0.0074 AU
Epoch 2020 May 31.0 TT = JDT 2459000.5                  Veres
M 346.08622              (2000.0)            P               Q
n   0.87280304     Peri.   19.82496     -0.09943377     +0.93144565
a   1.0844059      Node   245.83044     -0.95685425     -0.18602784
e   0.0620358      Incl.   22.56083     -0.27302542     +0.31273413
P   1.13           H   25.8           G   0.15           U   6
Residuals in seconds of arc
200529 G96  0.1+  0.1+    200529 I93  0.3+  0.5-    200530 L01  0.4+  0.4-
200529 G96  0.2-  0.1+    200529 I93  0.2+  0.6-    200530 L01  0.1+  0.1-
200529 G96  0.0   0.3+    200529 104  0.4-  0.2-    200530 L01  0.1-  0.2-
200529 I52  0.1+  0.3-    200529 104  0.2+  0.3+    200530 H21  0.1+  0.1-
200529 I52  0.2-  0.1-    200529 104  0.4+  0.4+    200530 H21  0.1-  0.1-
200529 I52  0.1-  0.2-    200529 J95  0.2-  0.0     200530 H21  0.2+  0.0
200529 I52  0.1-  0.2-    200529 J95  0.0   0.1+    200530 734  0.4-  0.6+
200529 N88  0.4+  1.3+    200529 Z99  0.2+  0.7-    200530 734  0.2+  0.6+
200529 N88  0.2+  0.3+    200529 J95  0.1+  0.0     200530 734  0.0   0.2+
200529 N88  0.2+  0.1+    200529 J95  0.3-  0.0     200530 734  0.4-  0.0
200529 N88  0.0   0.8-    200529 Z99  0.3-  0.2+    200530 I52  0.0   0.1+
200529 N88  0.0   0.0     200529 Z99  0.1+  0.2+    200530 I52  0.0   0.7-
200529 A17  0.3+  0.1-    200530 L01  0.5+  0.2+    200530 I52  0.0   0.3-
200529 A17  0.3+  0.2-    200530 L01  0.0   0.4+    200530 I52  0.1+  0.2-
200529 A17  0.2-  0.6-    200530 L01  0.3-  0.2+
200529 I93  0.0   0.2-    200530 L01  0.1+  0.0

Ephemeris:
2020 KV6                 a,e,i = 1.08, 0.06, 23                  q = 1.0171
Date    TT    R. A. (2000) Decl.     Delta      r    Elong.  Phase     V
2020 04 30    05 10 09.6 -75 58 22   0.1776  1.0347    93.9    76.2    24.8
...
2020 05 15    05 08 04.4 -78 13 03   0.08123 1.0255    98.1    77.4    23.1
...
2020 05 23    06 41 45.0 -87 53 29   0.02804 1.0220   109.0    69.6    20.5
...
2020 05 29    16 51 00.7 +44 24 12   0.01560 1.0200   113.7    65.5    19.1
2020 05 30    16 52 25.0 +52 55 12   0.02180 1.0197   105.1    73.7    20.1
2020 05 31    16 53 28.2 +57 35 46   0.02827 1.0194   100.4    78.1    20.8
...
2020 06 06    16 56 43.9 +66 31 57   0.06808 1.0180    90.8    85.3    23.0
...
2020 06 14    16 58 12.7 +69 16 29   0.1206  1.0172    87.3    85.9    24.3
...
2020 06 29    16 59 01.5 +70 49 26   0.2128  1.0186    84.5    83.5    25.4

M. P. C. Staff               (C) Copyright 2020 MPC           M.P.E.C. 2020-K226




More information about the Iaude mailing list